Imperial, NE

12:37 AM MDT on April 27, 2017 (GMT -0600)
Imperial Municipal

Weather History for KIML - May, 2014

Change the Weather History Date:

Saturday, May 3, 2014

  Actual Average Record
Temperature  
Mean Temperature 63 °F 55 °F  
Max Temperature 83 °F 68 °F 88 °F (1936)
Min Temperature 42 °F 41 °F 16 °F (1907)
Degree Days  
Heating Degree Days 2 10  
Month to date heating degree days 29 32  
Cooling Degree Days 0 0  
Month to date cooling degree days 0 0  
Year to date cooling degree days 1 1  
Growing Degree Days 12 (Base 50)    
Moisture  
Dew Point 40 °F    
Average Humidity 53    
Maximum Humidity 89    
Minimum Humidity 16    
Precipitation  
Precipitation 0.00 in 0.11 in 1.68 in (1991)
Sea Level Pressure  
Sea Level Pressure 29.85 in    
Wind  
Wind Speed 9 mph (SE)    
Max Wind Speed 21 mph    
Max Gust Speed 25 mph    
Visibility 10 miles    
Events      
T = Trace of Precipitation, MM = Missing Value Source: NWS Daily Summary

Daily Weather History Graph

Daily Weather History Graph

Search for Another Location

Airport or City:

Trip Planner

Search our weather history database for the weather conditions in past years. The results will help you decide how hot, cold, wet, or windy it might be!

Date:

Astronomy

May. 03, 2014 Rise Set
Actual Time 5:42 AM MDT 7:44 PM MDT
Civil Twilight 5:13 AM MDT 8:14 PM MDT
Nautical Twilight 4:36 AM MDT 8:50 PM MDT
Astronomical Twilight 3:57 AM MDT 9:30 PM MDT
Moon 9:14 AM MDT (5/3) 11:52 PM MDT (5/3)
Length of Visible Light 15h 01m
Length of Day
14h 01m
Waxing Crescent, 20% of the Moon is Illuminated
May 3
Waxing Crescent
May 6
First Quarter
May 14
Full
May 21
Last Quarter
May 28
New

Hourly Weather History & Observations

Time (MDT) Temp. Windchill Dew Point Humidity Pressure Visibility Wind Dir Wind Speed Gust Speed Precip Events Conditions
12:53 AM 46.9 °F - 43.0 °F 86% 29.90 in 10.0 mi East 5.8 mph - N/A   Clear
1:53 AM 46.0 °F 43.9 °F 43.0 °F 89% 29.91 in 10.0 mi NE 4.6 mph - N/A   Clear
2:53 AM 46.9 °F - 42.1 °F 83% 29.89 in 10.0 mi ENE 5.8 mph - N/A   Mostly Cloudy
3:53 AM 42.8 °F 41.1 °F 39.2 °F 87% 29.94 in 10.0 mi SE 3.5 mph - N/A   Clear
4:53 AM 43.0 °F - 39.0 °F 86% 29.89 in 10.0 mi Calm Calm - N/A   Clear
5:53 AM 42.1 °F - 39.0 °F 89% 29.90 in 10.0 mi Calm Calm - N/A   Clear
6:53 AM 46.0 °F 44.8 °F 39.9 °F 79% 29.91 in 10.0 mi East 3.5 mph - N/A   Clear
7:53 AM 50.0 °F - 41.0 °F 71% 29.93 in 10.0 mi SSE 9.2 mph - N/A   Clear
8:53 AM 57.0 °F - 41.0 °F 55% 29.94 in 10.0 mi SE 9.2 mph - N/A   Clear
9:53 AM 60.1 °F - 39.9 °F 47% 29.94 in 10.0 mi SSE 9.2 mph - N/A   Clear
10:53 AM 63.0 °F - 41.0 °F 45% 29.93 in 10.0 mi ESE 11.5 mph 16.1 mph N/A   Unknown
11:53 AM 69.1 °F - 41.0 °F 36% 29.89 in 10.0 mi SSE 17.3 mph 20.7 mph N/A   Clear
12:53 PM 73.0 °F - 39.9 °F 30% 29.87 in 10.0 mi SE 16.1 mph - N/A   Clear
1:53 PM 75.9 °F - 39.0 °F 26% 29.85 in 10.0 mi SSE 6.9 mph - N/A   Clear
2:53 PM 79.0 °F - 35.1 °F 20% 29.81 in 10.0 mi Variable 6.9 mph - N/A   Clear
3:53 PM 81.0 °F - 30.9 °F 16% 29.78 in 10.0 mi South 5.8 mph - N/A   Clear
4:53 PM 82.9 °F - 33.1 °F 17% 29.77 in 10.0 mi SSW 10.4 mph - N/A   Clear
5:53 PM 82.0 °F - 33.1 °F 17% 29.75 in 10.0 mi SE 12.7 mph - N/A   Clear
6:53 PM 75.9 °F - 37.0 °F 24% 29.75 in 10.0 mi SE 13.8 mph - N/A   Clear
7:53 PM 68.0 °F - 43.0 °F 40% 29.77 in 10.0 mi SE 13.8 mph - N/A   Clear
8:53 PM 64.0 °F - 45.0 °F 50% 29.78 in 10.0 mi SE 15.0 mph - N/A   Clear
9:53 PM 61.0 °F - 45.0 °F 56% 29.78 in 10.0 mi SE 19.6 mph - N/A   Clear
10:53 PM 57.9 °F - 45.0 °F 62% 29.78 in 10.0 mi SE 15.0 mph - N/A   Clear
11:53 PM 55.9 °F - 45.0 °F 67% 29.78 in 10.0 mi SSE 10.4 mph - N/A   Clear